GFSNIL_prec_cloud_003.txt.gz
Cloud_Cover
100 32 65 4 5 5 5 5 5 38 46 6 5 3 0 0 0 0 0 0 0 0
100 100 38 5 5 5 5 5 5 5 5 5 5 5 1 0 0 0 0 0 2 5
95 85 98 100 82 14 5 5 5 5 5 5 5 5 5 0 0 0 0 0 5 5
96 96 100 95 100 99 79 14 71 5 5 5 5 5 5 1 5 5 5 5 5 4
86 99 95 96 100 100 72 86 54 41 5 5 5 5 5 5 5 5 5 5 2 0
98 100 79 86 100 74 96 75 84 7 5 5 5 5 3 5 5 5 2 0 0 0
100 100 95 92 49 95 100 90 5 5 6 54 24 3 5 5 3 0 2 5 0 0
100 100 56 7 96 98 60 21 36 55 61 77 6 5 2 0 0 5 4 0 0 0
100 61 5 99 73 19 18 98 68 68 98 5 1 0 0 3 5 1 0 0 0 0
61 86 100 81 60 77 82 78 73 69 5 0 0 1 5 5 4 0 0 0 2 5
77 91 67 88 85 88 72 84 8 4 0 1 5 5 5 4 5 2 4 5 5 5
91 93 98 100 71 79 24 5 2 0 4 5 5 5 1 5 5 5 5 0 5 5
99 98 77 50 34 5 5 0 3 5 5 5 5 5 3 5 5 35 8 94 100 24
37 58 18 5 5 5 5 5 5 5 5 5 2 2 4 5 22 98 100 100 100 58

GFSNIL_prec_cloud_006.txt.gz
Cloud_Cover
92 100 89 100 100 79 5 5 5 5 46 5 5 5 5 0 0 0 0 0 0 0
100 100 96 99 100 5 14 42 51 51 55 23 5 5 5 0 0 1 0 0 0 0
100 88 79 100 81 89 100 100 95 100 81 59 19 5 5 0 5 5 0 0 0 0
80 62 100 89 98 100 96 99 100 93 53 54 5 5 5 5 5 5 0 0 0 0
100 100 100 100 89 93 100 99 89 50 43 63 26 5 5 5 5 2 0 0 0 0
92 99 93 98 100 100 100 98 83 66 100 63 5 5 5 5 3 0 0 0 0 0
39 68 76 95 100 100 80 93 74 100 58 6 5 5 5 3 0 0 4 4 0 0
72 100 100 100 100 100 90 81 100 77 66 15 5 5 5 0 0 5 5 4 0 0
100 99 100 100 100 94 92 100 86 89 75 46 5 5 5 5 5 5 5 1 5 1
100 100 98 100 93 100 100 99 79 98 15 5 5 5 5 42 6 5 5 3 5 5
81 100 100 100 100 100 100 99 67 45 6 5 5 15 19 5 6 5 5 5 6 54
100 100 100 100 100 100 94 69 61 5 5 5 5 5 14 38 6 13 5 5 31 89
100 100 100 100 100 78 86 6 5 5 5 5 6 77 8 66 12 5 5 59 98 100
100 100 100 96 85 71 91 12 5 5 5 64 28 58 57 5 5 15 77 100 100 100

GFSNIL_prec_cloud_009.txt.gz
Cloud_Cover
41 0 2 47 61 100 100 100 38 18 6 44 5 5 5 5 5 5 4 0 0 0
12 13 20 44 99 100 100 100 7 5 5 46 7 9 8 5 17 5 5 0 0 0
79 76 100 100 99 100 100 74 47 14 42 51 68 48 5 5 5 5 3 0 5 0
77 100 100 100 100 100 100 72 60 76 77 62 8 45 5 52 5 5 3 5 0 0
100 100 100 100 100 100 14 78 86 5 17 93 100 7 74 32 5 5 5 4 0 0
100 100 100 96 100 77 37 76 76 96 81 5 5 86 61 5 12 5 5 3 0 0
100 99 55 54 93 66 77 87 88 100 67 20 55 88 9 66 15 5 3 0 0 0
100 100 100 100 68 100 100 100 98 100 48 68 96 86 76 6 5 0 0 0 0 4
100 99 80 100 100 100 98 100 100 96 100 100 100 95 60 5 0 0 5 5 3 0
74 88 100 100 100 100 97 95 100 100 100 100 100 98 88 6 4 5 5 3 2 5
100 95 100 100 100 100 100 100 100 100 100 100 100 66 9 5 38 5 2 5 5 5
100 100 99 100 100 100 100 100 100 100 100 98 40 95 10 6 5 5 2 4 5 5
100 100 100 100 100 100 100 100 100 99 78 100 55 54 5 5 5 5 5 5 5 64
96 100 100 100 100 100 100 100 100 100 99 35 5 5 5 5 5 29 8 5 5 5

GFSNIL_prec_cloud_012.txt.gz
Cloud_Cover
100 5 9 64 90 58 61 80 99 100 100 12 21 73 54 21 26 11 8 23 12 5
100 5 5 34 100 71 77 100 99 99 96 10 5 91 95 98 99 73 16 5 43 40
93 70 67 70 100 71 98 100 96 100 45 5 8 54 81 100 90 76 45 30 11 48
100 100 100 100 89 100 99 100 100 100 5 35 46 62 65 62 64 25 6 5 5 5
100 100 100 70 98 100 100 100 100 89 16 82 100 66 84 90 5 5 44 23 5 5
100 100 100 100 100 100 100 100 100 85 100 81 85 74 99 46 5 34 9 48 64 8
100 100 100 100 86 100 100 100 77 86 80 100 89 100 86 74 76 68 46 70 66 7
100 100 100 100 100 100 100 98 100 100 100 100 100 93 89 100 98 100 100 100 78 8
100 100 100 100 100 91 88 99 88 100 100 100 100 99 97 100 100 91 58 57 29 5
100 100 100 100 100 97 96 88 100 100 100 100 100 100 96 100 87 100 86 5 5 2
100 100 100 100 100 100 100 100 100 100 100 100 100 100 97 100 100 83 9 5 4 2
100 100 100 100 100 100 100 100 100 100 100 79 63 100 100 100 72 5 5 34 5 5
100 100 100 100 99 88 98 100 100 92 76 54 100 100 100 42 6 77 94 31 51 5
100 100 91 97 100 100 97 99 96 98 100 100 99 57 18 30 79 12 84 31 7 5

GFSNIL_prec_cloud_015.txt.gz
Cloud_Cover
5 5 6 77 33 90 100 95 86 100 100 40 99 66 19 5 5 5 5 5 42 86
5 5 5 100 100 100 100 95 100 100 100 100 100 100 29 32 5 5 5 31 48 74
5 6 25 100 100 100 100 100 100 100 98 100 100 100 6 60 5 9 5 61 66 68
42 5 52 100 100 100 100 100 100 80 100 100 71 86 52 20 36 93 7 60 74 5
55 64 100 100 100 100 100 100 100 100 100 100 100 90 67 75 84 62 76 90 5 5
100 100 100 100 100 100 100 100 100 100 100 100 100 100 98 96 84 100 86 28 5 33
94 100 100 100 100 100 100 100 100 100 100 100 100 85 90 90 100 62 19 17 58 85
100 100 100 100 100 100 100 100 100 100 100 96 96 100 100 100 100 95 93 97 100 70
100 100 100 100 100 100 100 100 100 100 92 98 81 100 100 100 100 100 100 100 96 72
100 100 100 100 100 100 100 100 100 100 100 100 100 100 100 100 100 100 95 100 100 100
100 100 100 100 100 100 100 100 100 100 100 100 100 100 100 100 96 98 100 100 100 100
100 100 100 100 100 100 100 100 100 98 99 92 100 100 93 100 100 100 100 99 97 12
100 100 100 100 100 100 100 91 68 100 95 99 83 100 100 100 98 80 94 86 61 36
100 100 100 100 100 100 100 100 100 93 74 97 78 56 27 17 86 30 58 59 94 92

GFSNIL_prec_cloud_018.txt.gz
Cloud_Cover
30 15 6 5 5 15 79 97 82 80 100 100 100 100 100 49 98 99 6 5 5 5
3 46 36 5 5 24 82 98 100 99 100 100 100 100 99 74 100 89 5 5 5 5
0 3 5 5 5 5 78 100 100 100 100 100 100 100 100 100 100 98 47 6 5 32
0 0 24 72 8 57 82 100 100 100 100 100 100 100 99 100 80 100 21 13 5 26
0 0 2 6 14 9 100 100 100 100 100 100 100 100 100 100 100 100 96 6 14 100
0 10 20 98 78 99 100 100 100 100 100 100 100 100 100 100 100 100 22 90 79 100
85 72 23 99 100 99 100 100 100 100 100 100 100 100 100 100 100 92 84 99 100 100
100 98 100 100 100 100 100 100 100 100 100 100 100 100 100 100 100 84 99 100 99 100
100 100 100 100 100 100 100 100 100 100 100 100 100 100 100 100 94 100 100 100 100 99
100 100 98 71 100 100 100 100 100 100 100 100 100 100 100 100 100 100 100 76 52 59
100 78 100 100 100 100 100 100 100 100 100 100 100 100 100 100 99 61 97 15 78 52
100 100 100 100 100 100 100 100 100 100 100 100 100 100 100 100 100 100 76 56 6 34
100 100 100 100 100 100 100 100 100 100 100 100 100 100 100 100 99 72 22 5 5 5
100 100 100 100 100 100 100 100 100 100 100 100 100 100 100 98 99 12 9 5 5 4

GFSNIL_prec_cloud_021.txt.gz
Cloud_Cover
60 66 62 18 5 5 5 11 27 80 80 57 75 94 100 100 100 100 98 94 100 70
81 38 86 100 100 23 60 100 60 5 5 17 100 100 100 100 100 100 100 82 100 53
53 49 65 100 100 100 100 96 11 5 5 55 69 100 100 100 100 100 100 100 100 100
56 49 20 5 5 41 100 100 75 12 14 74 100 100 100 100 100 100 100 100 100 100
60 37 42 24 4 4 85 78 100 100 100 100 100 100 100 100 100 100 100 100 100 100
35 67 55 59 36 48 47 57 100 100 100 100 100 100 100 100 100 100 100 100 100 100
100 87 72 69 96 99 100 100 100 86 100 100 100 100 100 100 100 100 100 100 100 100
100 100 100 100 100 100 100 100 100 96 100 100 100 100 100 100 100 100 100 100 100 100
100 100 100 100 100 100 100 79 100 100 100 100 100 100 100 100 100 100 100 100 100 80
100 100 100 100 100 100 100 100 100 100 100 100 100 100 100 100 100 100 100 100 100 100
100 100 100 100 100 100 100 100 100 100 100 100 100 100 100 100 100 100 100 100 100 100
100 100 100 100 100 100 100 100 100 100 100 100 100 100 100 100 100 100 100 100 99 89
100 100 100 100 100 100 100 100 100 100 100 100 100 100 100 100 100 100 58 8 58 100
100 100 100 100 100 100 100 100 100 100 100 100 100 100 100 100 100 67 71 99 57 5

GFSNIL_prec_cloud_024.txt.gz
Cloud_Cover
100 100 36 2 18 87 57 13 5 6 86 100 100 100 100 100 100 100 100 100 100 100
91 100 99 16 1 6 62 100 100 100 100 100 100 100 100 100 100 100 100 100 100 100
40 84 100 89 79 100 100 100 100 100 100 100 100 100 100 100 100 100 100 100 100 100
26 46 90 91 61 100 100 100 100 100 100 100 100 100 100 100 100 100 100 100 100 100
0 38 42 53 64 61 100 100 100 100 100 100 100 100 100 100 100 100 100 100 100 100
23 54 48 67 100 100 100 100 100 100 100 100 100 100 100 100 100 100 100 100 100 100
36 95 96 100 100 100 100 100 100 100 100 100 100 100 100 100 100 100 100 100 100 100
94 100 100 100 100 100 100 100 100 100 100 100 100 100 100 100 100 100 100 100 100 100
100 100 100 100 100 100 100 100 100 100 100 100 90 100 100 100 100 100 100 100 100 100
83 100 100 100 100 100 100 100 100 100 100 100 100 100 100 100 100 100 100 100 100 100
100 100 100 100 100 100 100 100 100 100 100 100 100 100 100 100 100 100 100 100 100 100
100 100 100 100 100 100 100 100 100 100 100 100 100 100 100 100 100 100 100 100 100 100
100 100 100 100 100 100 100 100 100 100 100 100 100 100 100 100 100 100 100 100 100 100
100 100 100 100 100 100 100 100 100 100 100 100 100 100 100 100 100 100 100 100 100 100

GFSNIL_prec_cloud_027.txt.gz
Cloud_Cover
1 41 100 100 95 40 28 28 42 25 11 6 39 100 100 100 100 100 100 100 100 100
0 0 6 81 100 100 67 10 12 13 48 40 13 89 100 100 100 100 100 100 100 100
0 6 33 99 95 100 72 57 39 14 23 72 100 100 100 100 100 100 100 100 100 100
4 5 4 12 17 100 100 97 92 88 78 57 95 100 100 100 100 100 100 100 100 100
5 22 24 31 98 100 98 90 100 100 100 100 100 100 100 100 100 100 100 100 100 100
99 100 100 100 93 100 100 95 96 100 100 100 100 100 100 100 100 100 100 100 100 100
100 100 100 100 100 100 100 100 100 100 100 100 100 100 100 100 100 100 100 100 100 100
100 100 99 100 100 100 100 100 100 100 100 100 100 100 100 100 100 100 100 100 100 100
97 88 100 100 100 100 100 100 100 100 100 100 100 100 100 100 100 100 100 100 100 100
99 100 100 100 100 100 100 100 100 100 100 100 100 100 100 100 100 100 100 100 100 100
100 100 100 100 100 100 100 100 100 100 100 100 100 100 100 100 100 100 100 100 100 100
100 100 100 100 100 100 100 100 100 100 100 100 100 100 100 100 100 100 100 100 100 100
100 100 100 100 100 100 100 100 100 100 100 100 100 100 100 100 100 100 100 100 100 100
100 100 100 100 100 100 100 100 100 100 100 100 100 100 100 100 100 100 100 100 100 100

GFSNIL_prec_cloud_030.txt.gz
Cloud_Cover
5 4 4 5 91 90 100 100 100 100 100 100 100 100 92 77 90 100 100 100 100 100
0 0 0 1 9 18 39 95 100 100 100 100 100 100 100 100 100 100 100 100 100 100
0 0 0 0 0 0 6 100 100 100 100 100 100 100 100 100 100 100 100 100 100 100
0 0 0 0 3 11 43 74 100 100 100 100 100 100 100 100 100 100 100 100 100 100
0 0 3 5 51 100 100 100 100 100 100 100 100 100 100 100 100 100 100 100 100 100
5 5 7 12 100 100 100 100 100 100 100 100 100 100 100 100 100 100 100 100 100 100
98 78 67 52 90 100 100 100 100 100 100 100 100 100 100 100 100 100 100 100 100 100
100 99 88 58 100 100 100 100 100 100 100 100 100 100 100 100 100 100 100 100 100 100
100 100 87 59 100 100 100 100 100 100 100 100 100 100 100 100 100 100 100 100 100 100
100 100 100 100 100 100 100 100 100 100 100 100 100 100 100 100 100 100 100 100 100 100
100 100 100 100 100 100 100 100 100 100 100 100 100 100 100 100 100 100 100 100 100 100
100 100 100 100 100 100 100 100 100 100 100 100 100 100 100 100 100 100 100 100 100 100
100 100 100 100 100 100 100 100 100 100 100 100 100 100 100 100 100 100 100 100 100 97
100 100 99 98 100 100 99 100 100 100 100 100 100 100 100 100 100 100 100 100 100 100

GFSNIL_prec_cloud_033.txt.gz
Cloud_Cover
5 6 40 41 16 50 97 76 99 100 100 100 100 100 100 100 100 99 84 94 100 100
25 82 6 4 11 28 31 30 45 70 100 100 100 100 100 100 100 100 100 100 100 100
5 3 0 0 0 0 0 0 41 100 100 100 100 100 100 100 100 100 100 100 100 100
0 0 0 0 0 0 0 0 5 38 100 100 100 100 100 100 100 100 100 100 100 100
0 0 0 1 0 0 1 5 80 92 94 100 100 100 100 100 100 100 100 100 100 100
48 60 58 66 52 20 21 9 24 50 67 100 100 100 100 100 100 100 100 100 100 100
92 97 100 98 51 26 17 9 60 86 100 100 100 100 100 100 100 100 100 100 100 100
98 98 100 100 100 96 54 26 74 36 89 100 100 100 100 100 100 100 100 100 100 100
76 94 100 100 100 100 100 50 85 100 100 100 100 100 100 100 100 100 100 100 100 100
75 100 100 100 100 100 100 100 100 100 100 100 100 100 100 100 100 100 100 100 100 100
99 100 100 100 100 100 100 100 100 100 100 100 100 100 100 100 100 100 100 100 100 100
100 100 100 100 100 100 100 100 100 100 100 100 100 100 100 100 100 100 100 100 100 100
100 100 100 100 100 100 100 100 100 100 100 99 100 97 99 100 100 100 96 100 100 100
100 100 100 100 100 100 100 92 56 23 51 98 91 100 100 100 100 100 100 100 100 100

GFSNIL_prec_cloud_036.txt.gz
Cloud_Cover
6 11 20 34 11 48 11 51 100 100 98 92 100 100 100 69 88 100 100 100 100 100
12 39 59 58 9 5 46 30 70 61 4 97 100 100 100 100 100 100 100 100 100 100
87 31 6 7 14 16 11 17 0 0 0 16 100 100 100 100 100 100 100 100 100 100
87 79 72 68 7 1 0 0 0 0 0 0 28 77 88 99 74 100 100 100 100 100
53 40 7 5 23 0 0 0 0 0 0 0 5 5 68 100 96 100 100 100 100 100
6 8 33 53 89 84 80 49 18 2 48 14 41 60 96 99 100 100 100 100 100 100
95 96 100 100 99 35 3 0 0 0 0 5 10 45 42 8 77 94 100 100 100 100
97 79 100 100 100 100 88 40 21 6 69 100 98 72 71 91 100 100 100 100 100 100
100 100 100 100 100 31 98 86 61 34 78 100 100 100 100 100 100 100 100 100 100 100
100 100 100 100 87 100 100 100 100 100 100 97 100 100 100 100 100 100 100 100 100 100
100 100 100 100 100 100 100 100 100 100 100 100 100 100 100 100 100 100 100 100 100 100
100 100 100 100 100 100 100 100 100 100 100 100 100 100 100 84 92 84 79 98 100 100
100 100 100 100 100 100 100 100 100 100 100 74 61 95 95 24 35 53 34 70 74 100
100 100 100 100 100 100 88 8 13 68 80 68 5 5 5 4 9 28 52 50 31 4

GFSNIL_prec_cloud_039.txt.gz
Cloud_Cover
88 100 71 22 5 5 5 5 5 5 52 100 100 75 48 99 100 99 86 100 100 100
53 30 49 87 18 62 5 5 5 2 5 30 54 9 45 95 92 100 100 100 92 93
82 62 96 77 40 10 5 58 83 13 2 30 5 2 9 33 41 59 89 100 100 100
100 100 100 85 42 32 5 4 5 13 46 1 0 0 0 0 18 40 62 63 99 100
100 91 79 78 60 50 5 0 5 0 0 0 0 9 38 45 50 90 100 99 100 100
100 100 99 100 38 100 100 12 0 0 0 0 0 1 16 99 87 100 100 100 100 100
92 78 100 100 100 100 22 1 1 0 0 0 0 11 46 86 79 71 74 100 100 100
100 100 100 100 99 100 100 30 0 0 0 0 19 59 57 55 88 100 100 100 100 100
99 100 100 100 100 100 100 95 44 34 39 100 100 99 100 95 100 100 100 100 100 100
100 97 100 100 100 100 100 96 97 79 77 98 100 100 100 58 100 100 100 100 100 99
100 100 100 100 100 100 100 100 100 100 100 100 100 100 99 98 85 81 67 80 69 97
100 100 100 100 100 100 100 100 100 100 100 100 100 100 98 83 73 28 33 31 5 7
100 100 100 100 100 100 100 100 100 86 21 5 12 5 5 13 18 5 5 4 0 5
97 98 100 100 100 33 10 34 80 96 80 14 5 5 5 4 0 0 0 4 5 5

GFSNIL_prec_cloud_042.txt.gz
Cloud_Cover
100 100 100 100 85 8 5 5 10 5 5 5 5 5 31 39 7 38 73 94 100 100
71 100 100 96 29 8 10 5 34 12 34 5 5 5 5 9 33 61 93 80 100 100
84 90 94 96 92 64 87 60 83 98 32 5 5 7 26 36 32 46 98 100 100 100
100 100 100 100 98 99 100 100 100 100 51 5 6 7 5 18 30 100 100 100 100 100
100 100 100 100 99 100 100 100 100 45 7 5 5 1 4 0 2 92 100 100 100 100
78 66 89 100 100 100 99 43 30 5 5 2 5 3 0 0 8 50 100 100 99 100
100 100 100 100 100 100 91 22 5 5 4 5 4 0 0 2 11 20 27 64 99 100
100 100 100 100 92 100 100 52 5 5 1 1 8 11 0 10 37 72 99 100 100 89
100 100 100 97 99 100 100 100 100 97 100 100 100 100 93 33 98 100 100 100 100 100
100 100 100 100 100 98 100 100 100 100 100 100 100 100 99 58 20 38 42 62 36 35
100 100 100 100 100 100 100 100 100 100 100 100 100 100 100 100 79 48 13 7 5 5
100 100 100 100 100 100 100 100 100 100 100 100 81 33 13 16 16 5 5 5 5 2
100 100 100 100 100 100 100 100 40 29 51 6 5 5 5 14 8 5 5 0 3 5
100 100 100 100 71 66 90 100 100 96 33 7 5 5 5 5 0 1 1 4 5 8

GFSNIL_prec_cloud_045.txt.gz
Cloud_Cover
100 100 100 100 100 100 100 88 79 40 25 19 6 46 28 14 22 25 100 100 100 88
100 100 100 100 100 100 100 100 100 96 94 16 7 23 27 70 96 100 100 100 100 100
100 100 100 100 100 100 100 100 100 99 99 66 18 37 10 44 100 100 100 100 100 100
100 100 100 100 100 100 100 100 100 76 33 88 73 75 49 57 34 99 100 100 100 100
100 100 100 100 100 100 93 100 75 82 95 100 89 52 72 38 5 5 4 22 57 72
31 27 88 95 100 84 23 29 94 92 93 8 8 82 54 14 5 2 2 5 3 12
100 39 99 100 100 100 100 99 100 42 24 7 10 5 7 4 26 42 52 36 23 6
96 96 100 100 96 100 100 100 59 43 70 85 84 56 21 84 100 100 100 100 100 100
100 100 100 100 100 100 100 100 100 100 100 100 100 100 100 99 100 100 100 100 100 99
100 100 100 100 100 100 100 100 100 100 100 100 100 99 86 85 51 17 20 12 18 21
100 100 100 100 100 100 100 100 100 100 100 100 99 89 56 8 5 6 5 5 5 5
100 100 100 100 100 100 100 100 100 100 93 5 5 4 5 6 5 5 5 1 5 2
100 100 100 100 100 100 100 100 65 40 24 6 5 5 5 4 5 4 0 0 0 4
100 100 100 100 100 100 100 100 68 9 5 9 3 5 5 5 2 5 5 5 5 5

GFSNIL_prec_cloud_048.txt.gz
Cloud_Cover
100 100 100 100 100 100 100 100 100 100 100 100 100 100 100 100 100 98 99 100 100 100
100 100 100 100 100 100 100 100 100 100 100 100 100 100 100 100 99 100 100 97 100 100
100 100 100 100 100 100 100 100 100 100 100 100 100 82 75 100 100 100 100 100 100 100
100 100 100 100 100 100 100 100 100 100 100 78 14 5 5 42 94 99 99 54 88 36
100 100 100 100 100 100 100 100 100 77 32 6 26 12 5 5 5 5 14 14 62 13
10 72 90 96 96 75 57 56 45 59 5 25 24 6 9 67 82 39 91 91 26 35
77 28 10 21 86 100 100 100 67 62 69 75 26 66 37 96 100 100 100 100 100 91
100 100 100 100 100 100 100 100 92 99 100 100 96 69 100 100 100 100 100 100 100 100
100 100 100 100 100 100 100 100 100 100 100 100 100 100 100 93 99 100 100 100 98 93
100 100 100 100 100 100 100 100 100 100 100 100 100 100 94 15 5 5 5 5 5 5
100 100 100 100 100 100 100 100 100 100 98 100 84 71 22 5 5 5 5 5 5 5
100 100 100 100 100 100 100 100 100 99 100 100 8 5 3 4 5 5 5 2 5 5
100 100 100 100 100 100 100 100 100 100 100 30 5 5 2 2 5 4 0 0 4 7
100 100 100 100 100 100 100 100 100 100 100 38 4 5 5 4 5 5 3 5 7 60

GFSNIL_prec_cloud_051.txt.gz
Cloud_Cover
100 100 100 100 100 100 100 100 100 100 100 100 100 100 100 100 100 100 100 100 100 100
94 100 100 100 100 100 100 100 100 100 100 100 100 100 100 100 100 100 100 100 99 83
100 100 100 100 100 100 100 100 100 100 100 100 100 100 100 100 100 100 100 100 81 98
52 62 76 88 59 75 93 100 100 100 100 100 100 100 100 100 100 100 100 90 91 56
5 6 15 28 63 92 100 100 100 100 100 100 100 98 73 57 59 45 57 35 22 27
1 0 0 1 6 10 97 89 100 100 96 92 53 100 39 34 65 81 68 37 83 33
22 5 6 15 37 84 100 100 100 61 69 72 48 88 100 100 100 100 100 100 97 96
21 51 100 100 100 100 100 100 100 100 100 100 92 100 100 100 100 100 100 100 100 100
100 100 100 100 100 100 100 100 100 100 100 100 100 100 100 100 100 100 100 100 100 100
100 100 100 100 100 100 100 100 100 100 100 100 100 100 100 99 100 96 5 14 5 5
100 100 100 100 100 100 100 100 100 100 100 100 100 100 100 100 96 20 15 30 5 5
100 100 100 100 100 100 100 100 100 100 100 100 100 96 100 100 60 74 63 5 5 1
100 100 100 100 100 100 100 100 100 100 99 100 100 100 100 100 100 99 2 0 0 5
100 100 100 100 100 100 100 100 100 100 100 100 100 100 100 100 36 5 3 2 0 2

GFSNIL_prec_cloud_054.txt.gz
Cloud_Cover
100 100 100 100 100 100 100 100 100 100 100 100 100 100 100 100 100 100 100 100 100 100
100 100 100 100 100 100 100 100 100 100 100 100 100 100 100 100 100 100 100 100 100 100
100 100 100 100 100 98 94 100 100 100 100 100 100 100 100 100 100 100 100 100 100 100
100 100 100 100 100 100 100 100 100 100 100 100 100 100 100 100 100 100 100 92 65 43
100 100 100 100 100 100 96 100 100 100 100 85 81 100 100 100 100 84 56 46 50 36
37 92 100 100 100 76 56 36 70 85 100 100 60 76 60 39 19 26 20 16 100 100
50 6 30 49 29 71 70 82 86 95 89 56 46 65 90 86 100 94 94 100 100 100
100 100 100 100 100 100 100 100 100 100 96 88 100 100 100 100 100 100 100 100 100 100
100 100 80 76 100 100 100 100 100 100 100 100 100 100 100 100 100 100 100 100 100 100
92 99 98 100 100 100 100 100 100 100 100 100 100 100 100 100 100 100 100 100 100 74
98 100 98 100 100 100 100 100 100 100 100 100 100 100 100 100 100 100 100 100 100 61
100 100 100 100 100 100 100 100 100 100 100 100 100 100 100 100 100 100 100 100 100 100
100 100 100 100 100 100 100 100 100 100 100 100 100 100 100 100 100 100 100 100 100 100
100 100 100 100 100 100 100 100 100 100 100 100 100 100 100 100 100 100 100 100 100 100

GFSNIL_prec_cloud_057.txt.gz
Cloud_Cover
100 100 100 100 100 100 100 100 100 100 100 100 100 100 100 100 100 100 100 100 100 100
100 100 100 100 100 100 100 100 100 100 100 100 100 100 100 100 100 100 100 100 100 100
100 100 100 100 100 100 100 100 100 100 100 100 100 100 100 100 100 100 100 100 100 100
99 100 100 100 100 100 100 100 100 100 100 100 100 100 100 100 100 100 100 100 100 100
99 100 100 100 100 100 100 100 100 100 100 100 100 100 100 100 100 100 100 100 100 100
100 100 98 98 100 100 100 100 100 100 100 100 100 100 100 100 100 99 100 100 100 97
100 100 100 84 81 98 83 100 93 100 99 100 100 100 100 100 100 97 82 84 42 59
100 100 100 100 100 82 89 99 95 100 100 100 100 100 100 100 100 100 100 100 82 100
100 100 100 100 100 100 100 100 100 100 100 100 100 100 100 100 100 100 98 100 100 100
42 100 100 100 100 95 100 100 100 100 100 100 100 100 100 100 100 100 100 99 100 100
56 100 100 100 89 97 100 100 100 100 100 100 100 100 67 93 100 100 100 100 100 100
100 100 100 100 100 100 100 100 100 100 100 100 100 82 100 100 100 100 100 100 100 100
100 98 100 100 100 100 100 100 100 100 99 100 100 100 100 100 100 100 100 100 100 100
100 100 100 100 100 100 100 100 100 99 100 100 100 100 100 100 100 100 100 100 100 100

GFSNIL_prec_cloud_060.txt.gz
Cloud_Cover
100 100 100 100 100 100 100 100 100 100 100 100 100 100 100 100 100 100 100 100 100 100
100 100 100 100 100 100 100 100 100 100 100 100 100 100 100 100 100 100 100 100 100 100
100 100 100 100 100 100 100 100 100 100 100 100 100 100 100 100 100 100 100 100 100 100
100 100 100 100 100 100 99 100 87 99 85 100 100 100 100 100 100 100 100 100 100 100
100 100 100 100 100 100 96 86 100 100 94 100 100 64 99 100 100 100 100 100 100 100
100 100 100 100 100 100 100 100 100 100 98 90 100 98 99 100 100 100 100 100 100 100
97 100 100 100 100 100 100 100 100 100 100 96 95 63 80 73 100 100 100 86 88 88
23 95 100 100 100 100 100 100 100 91 100 100 100 99 100 100 100 100 100 100 100 100
40 5 23 100 100 94 90 100 100 100 100 100 100 100 100 100 100 100 100 100 100 100
100 100 22 56 100 100 100 100 100 100 100 100 100 100 100 100 100 100 100 100 100 100
1 54 100 100 100 100 57 47 100 100 100 100 100 100 100 100 100 100 89 100 98 97
5 5 87 100 100 100 100 100 100 100 100 100 100 77 29 96 100 100 100 100 100 100
5 6 100 45 100 100 100 100 100 100 100 96 100 96 94 100 100 100 100 100 100 100
5 77 99 20 100 100 100 100 100 100 100 99 100 100 100 100 100 100 100 100 100 100

GFSNIL_prec_cloud_063.txt.gz
Cloud_Cover
100 100 100 100 100 100 100 100 100 100 100 100 100 100 100 100 100 100 100 100 100 100
100 100 100 100 100 100 100 100 100 100 100 100 100 100 100 100 100 100 100 100 100 100
100 100 100 100 100 96 100 98 100 100 100 96 100 100 100 97 100 97 100 100 100 100
100 100 100 100 100 100 100 100 100 85 88 95 100 100 84 99 100 100 100 100 100 100
100 100 100 100 100 100 100 100 100 100 100 100 100 96 78 100 100 100 100 100 100 100
22 27 6 96 99 100 100 100 100 100 100 100 100 100 100 76 100 100 100 100 100 100
96 98 86 88 100 77 92 83 71 80 54 98 100 100 100 100 100 100 100 100 100 100
0 10 16 100 100 100 74 6 47 100 100 100 100 100 100 100 100 100 100 100 100 100
5 5 3 35 100 100 74 90 11 99 100 100 85 100 100 100 100 100 100 100 100 100
4 5 58 6 5 5 50 89 33 85 43 100 100 100 100 100 100 100 100 100 100 100
0 0 0 0 4 73 80 20 44 95 99 100 100 100 100 100 100 100 100 100 100 100
5 5 5 3 24 100 100 100 100 100 100 100 100 99 100 70 52 91 82 86 100 100
5 5 5 5 98 100 100 100 100 100 100 100 100 69 46 27 86 22 82 100 100 100
16 5 5 60 75 99 100 100 100 100 100 100 61 47 82 94 100 100 100 100 100 100

GFSNIL_prec_cloud_066.txt.gz
Cloud_Cover
100 100 100 100 100 100 100 100 100 100 100 100 100 100 100 100 94 100 100 100 100 61
99 100 99 100 100 100 100 100 100 100 100 100 92 86 37 78 99 92 100 100 99 100
100 98 93 97 100 100 100 100 100 100 100 100 100 100 80 90 66 60 74 94 100 100
100 100 100 100 100 100 97 86 78 94 96 97 98 81 98 64 85 99 100 100 100 100
100 100 100 100 100 100 100 96 82 100 100 96 100 89 23 91 100 100 100 100 100 100
96 100 100 100 100 100 100 100 100 100 100 100 89 95 88 97 100 99 100 100 100 100
2 0 4 22 99 99 100 100 100 98 53 18 11 100 87 31 86 100 100 100 100 100
0 0 0 0 0 0 1 3 5 4 44 5 92 90 81 55 81 100 100 100 100 100
0 0 0 0 0 0 0 0 0 0 2 5 22 97 100 100 99 100 100 100 100 100
0 0 0 0 0 0 0 0 3 4 1 0 0 20 100 100 100 100 100 100 100 100
0 0 0 0 0 0 0 0 0 3 10 16 6 100 100 100 100 100 100 100 100 100
0 1 0 2 0 0 5 92 90 100 100 73 96 100 100 100 100 100 100 100 100 79
5 5 5 5 5 5 18 98 100 100 100 100 100 100 76 50 25 74 78 47 78 100
5 5 5 5 23 65 80 94 100 100 100 100 100 100 34 5 14 40 68 77 82 100

GFSNIL_prec_cloud_069.txt.gz
Cloud_Cover
100 100 100 100 100 100 100 100 100 100 100 100 100 100 100 100 100 100 100 100 100 100
100 100 100 100 100 100 100 100 100 100 100 100 100 100 100 100 100 100 100 99 100 100
100 100 100 100 100 100 100 100 100 100 100 100 100 100 100 100 100 100 100 100 100 99
100 100 100 100 100 100 100 100 100 100 100 100 100 100 100 100 79 52 93 100 79 79
9 85 100 100 100 100 100 100 100 100 100 100 100 80 63 5 6 5 17 99 100 100
100 100 100 99 98 99 100 100 100 96 100 100 100 74 74 65 81 98 62 94 100 100
30 17 2 2 38 90 100 100 100 100 100 100 100 100 100 100 100 100 100 100 100 100
1 6 34 62 8 2 3 0 0 0 6 22 28 45 81 17 8 13 33 100 100 100
0 0 0 5 0 6 5 4 0 0 0 0 0 0 0 4 2 41 100 100 100 100
0 0 0 0 0 0 0 0 0 0 0 0 0 1 23 77 77 100 100 100 100 100
0 0 0 0 0 0 0 0 0 0 0 0 0 41 47 95 79 98 100 100 100 100
0 0 3 2 3 0 2 5 31 0 89 100 61 26 82 100 100 100 100 100 100 100
0 0 5 5 8 0 0 68 100 100 100 100 99 47 100 96 100 100 100 100 100 99
0 0 3 5 5 18 64 92 100 100 100 99 94 100 100 75 5 5 19 34 8 46

GFSNIL_prec_cloud_072.txt.gz
Cloud_Cover
100 100 100 100 100 100 100 100 100 100 100 100 100 100 100 100 100 100 100 100 100 100
100 100 100 100 100 100 100 100 100 100 100 100 100 100 100 100 100 100 100 100 100 95
100 100 100 100 100 100 100 100 100 100 100 100 100 100 100 100 100 100 100 100 100 100
100 100 100 100 100 100 100 100 100 100 100 100 100 100 100 100 100 100 100 100 100 100
100 100 100 100 100 100 100 100 100 100 100 100 100 100 100 100 100 100 100 100 100 100
100 100 100 100 100 95 100 100 100 100 100 100 100 100 100 100 100 100 100 100 100 100
100 94 100 100 100 100 100 100 100 100 100 100 100 100 100 100 100 100 100 91 50 4
78 94 62 9 25 17 78 96 100 77 44 7 29 25 12 39 18 5 0 0 0 89
0 0 0 2 0 0 1 4 30 5 5 5 0 0 0 0 1 0 1 15 77 100
5 4 2 1 0 0 0 0 0 0 0 0 0 0 0 7 92 54 85 100 100 100
5 7 6 5 5 0 0 0 0 0 0 0 0 11 11 69 100 56 71 100 100 100
8 18 12 5 3 0 1 5 10 0 5 0 45 28 100 100 42 91 94 100 100 100
15 5 5 4 4 0 0 74 100 100 21 8 73 100 95 87 100 100 100 100 100 100
100 96 57 97 99 44 23 92 100 100 100 47 70 97 80 100 100 12 79 100 99 82

GFSNIL_prec_cloud_075.txt.gz
Cloud_Cover
100 100 100 100 100 100 100 100 100 100 100 100 100 100 100 100 100 100 100 100 100 100
100 100 100 100 100 100 100 100 100 100 100 100 100 100 100 100 100 100 100 100 100 100
100 100 100 100 100 100 100 100 100 100 100 100 100 100 100 100 100 100 100 100 100 100
100 100 100 100 100 100 100 100 100 100 100 100 100 100 100 100 100 100 100 100 100 100
100 100 100 100 100 100 100 100 100 100 100 100 100 100 100 100 100 100 100 100 100 100
100 100 100 100 99 100 87 96 59 100 100 100 100 100 100 100 100 100 100 41 100 100
100 100 100 100 100 100 100 100 100 100 100 100 100 100 100 100 100 100 100 100 100 100
100 100 100 100 100 100 100 100 100 100 100 100 100 100 100 100 36 100 100 96 100 38
100 100 100 100 100 100 100 100 100 100 100 100 100 100 100 82 100 100 99 99 99 44
100 100 100 100 100 100 100 100 100 100 100 100 96 45 16 90 35 4 19 31 67 94
100 100 100 100 100 100 100 100 100 100 100 100 100 100 78 4 3 60 18 64 100 100
83 82 38 34 97 100 98 23 66 87 100 74 7 2 68 100 100 41 36 32 73 100
99 100 100 97 100 100 100 100 15 100 13 0 25 2 79 100 89 41 44 100 99 98
100 100 100 100 100 100 77 86 100 100 100 75 5 14 91 100 91 12 97 100 100 100

GFSNIL_prec_cloud_078.txt.gz
Cloud_Cover
100 100 100 100 100 100 100 100 100 100 100 100 100 100 100 100 100 100 100 100 100 100
100 100 100 100 100 100 100 100 100 100 100 100 100 100 100 100 100 100 100 100 100 100
100 100 100 100 100 100 100 100 100 100 100 100 100 100 100 100 100 100 100 100 100 100
100 100 100 100 100 100 100 100 100 100 100 100 100 100 100 100 100 100 100 100 100 100
100 100 100 100 100 100 100 100 100 100 100 100 100 100 100 100 100 100 100 100 100 100
100 100 100 100 100 100 100 100 100 100 100 100 100 100 100 100 100 100 100 100 100 100
100 100 100 100 98 100 100 100 100 100 100 100 100 100 100 100 100 100 100 84 100 100
98 94 100 100 100 92 100 100 100 100 100 100 100 100 100 100 100 100 95 98 100 65
100 100 98 92 100 100 100 100 100 100 100 100 100 100 66 79 100 58 5 98 100 27
100 100 96 100 100 100 100 100 100 100 100 100 100 86 100 99 100 100 100 100 98 100
100 100 100 100 100 100 100 92 100 100 100 100 100 100 100 100 100 100 100 100 100 100
97 51 100 100 100 100 100 100 100 100 100 100 88 100 100 100 100 100 100 91 98 100
100 99 65 76 100 100 100 100 100 100 100 100 100 100 100 100 100 100 97 75 95 96
48 100 83 66 91 100 100 100 100 100 100 100 100 100 100 100 100 100 100 83 81 100

GFSNIL_prec_cloud_081.txt.gz
Cloud_Cover
100 100 100 100 100 100 100 100 100 100 100 100 100 100 100 100 100 100 100 100 100 100
100 100 100 100 100 100 100 100 100 100 100 100 100 100 100 100 100 100 100 100 100 100
100 100 100 100 100 100 100 100 100 100 100 100 100 100 100 100 100 100 100 100 100 100
100 100 100 100 100 100 100 100 100 100 100 100 100 100 100 100 100 100 100 100 100 100
100 100 100 100 100 100 100 100 100 100 100 100 100 100 100 100 100 100 100 100 100 100
100 100 100 100 100 100 100 100 100 100 100 100 100 100 100 100 100 100 100 100 100 100
100 100 100 100 100 100 100 100 100 100 100 100 100 100 100 100 100 100 100 100 100 100
100 100 100 100 100 100 100 100 100 100 100 100 100 100 100 100 100 100 100 100 100 100
100 100 100 100 100 100 100 100 100 100 100 100 100 100 100 100 100 100 100 76 99 100
84 80 39 55 36 10 47 97 89 100 99 100 100 100 100 100 100 100 100 100 90 100
31 80 91 38 43 86 80 31 20 9 9 5 10 73 96 83 98 100 100 70 100 94
94 91 82 87 95 100 100 100 97 34 5 14 100 93 100 42 16 60 100 96 88 100
28 91 89 100 100 100 100 100 100 100 97 100 97 100 100 100 100 75 100 100 100 100
1 9 0 66 100 100 100 100 78 100 100 100 100 100 100 100 100 100 100 100 100 100

GFSNIL_prec_cloud_084.txt.gz
Cloud_Cover
100 100 100 100 100 100 100 100 100 100 100 100 100 100 100 100 100 100 100 100 100 100
100 100 100 100 100 100 100 100 100 100 100 100 100 100 100 100 100 100 100 100 100 100
100 100 100 100 100 100 100 100 100 100 100 100 100 100 100 100 100 100 100 100 100 100
100 100 100 100 100 100 100 100 100 100 100 100 100 100 100 100 100 100 100 100 100 100
100 100 100 100 100 100 100 100 100 100 100 100 100 100 100 100 100 100 100 100 100 100
100 100 100 100 100 100 100 100 100 100 100 100 100 100 100 100 100 100 100 100 100 100
100 100 100 100 100 100 100 100 100 100 100 100 100 100 100 100 100 100 100 100 100 100
100 100 100 100 100 100 100 100 100 100 100 100 100 100 100 100 100 100 100 100 100 100
100 100 100 100 100 100 100 100 100 100 100 100 100 100 100 100 100 100 100 100 100 100
100 100 100 100 100 90 98 100 100 100 100 100 100 82 100 100 100 100 100 100 100 100
100 100 78 76 95 100 100 100 75 100 100 100 100 100 100 100 100 100 100 100 100 100
99 100 100 100 100 100 100 100 100 100 100 100 100 100 100 100 71 100 100 100 100 100
100 100 100 91 18 36 99 100 100 100 100 100 100 100 84 63 86 100 98 100 100 100
94 66 34 36 42 40 9 64 45 98 41 96 100 100 100 100 100 99 86 100 100 100

GFSNIL_prec_cloud_087.txt.gz
Cloud_Cover
100 100 100 100 100 100 100 100 100 100 100 100 100 100 100 100 100 100 100 100 100 100
100 100 100 100 100 100 100 100 100 100 100 100 100 100 100 100 100 100 100 100 100 100
100 100 100 100 100 100 100 100 100 100 100 100 100 100 100 100 100 100 100 100 100 100
100 100 100 100 100 100 100 100 100 100 100 100 100 100 100 100 100 100 100 100 100 100
100 100 100 100 100 100 100 100 100 100 100 100 100 100 100 100 100 100 100 100 100 100
100 100 100 100 100 100 100 100 100 100 100 100 100 100 100 100 100 100 100 100 100 100
100 100 100 100 100 100 100 100 100 100 100 100 100 100 100 100 100 100 100 100 100 100
100 100 100 100 100 100 100 100 100 100 100 100 100 100 100 100 100 100 100 100 100 100
100 100 100 100 100 100 100 100 100 100 100 100 100 100 100 100 100 100 100 100 100 100
99 100 100 100 100 100 100 100 100 100 100 100 100 100 100 100 100 100 100 100 100 100
52 38 100 100 100 100 100 100 100 100 100 100 100 100 100 100 100 95 98 100 100 100
22 78 45 99 100 100 100 100 100 100 100 100 100 100 100 100 100 100 100 100 100 100
5 1 3 2 5 5 6 5 56 100 87 100 96 94 100 100 100 100 100 100 100 100
1 0 0 0 0 0 0 2 3 0 8 14 17 64 86 100 100 100 100 100 100 100

GFSNIL_prec_cloud_090.txt.gz
Cloud_Cover
100 100 100 100 100 100 100 100 100 100 100 100 100 100 100 100 100 100 100 100 100 100
100 100 100 100 100 100 100 100 100 100 100 100 100 100 100 100 100 100 100 100 100 100
100 100 100 100 100 100 100 100 100 100 100 100 100 100 100 100 100 100 100 100 100 100
100 100 100 100 100 100 100 100 100 100 100 100 100 100 100 100 100 100 100 100 100 100
100 100 100 100 100 100 100 100 100 100 100 100 100 100 100 100 100 100 100 100 100 100
100 100 100 100 100 100 100 100 100 100 100 100 100 100 100 100 100 100 100 100 100 100
100 100 100 100 100 100 100 100 100 100 100 100 100 100 100 100 100 100 100 100 100 100
100 100 100 100 100 100 100 100 100 100 100 100 100 100 100 100 100 100 100 100 100 100
100 100 100 100 100 100 100 100 100 100 100 100 100 100 100 97 68 100 100 100 100 100
100 100 100 100 100 100 100 100 100 100 100 100 100 100 100 100 100 100 100 100 100 100
100 92 100 100 100 100 100 100 100 100 100 100 100 100 100 100 100 100 100 100 100 100
88 100 100 88 92 6 22 99 100 98 76 74 100 99 100 100 100 100 100 100 100 100
36 9 15 1 0 0 2 4 0 0 1 4 5 39 66 83 100 100 100 100 100 100
3 5 2 2 0 0 0 0 3 5 23 20 6 5 65 100 100 100 100 100 100 100

GFSNIL_prec_cloud_093.txt.gz
Cloud_Cover
100 100 100 100 100 100 100 100 100 100 100 100 100 100 100 100 100 100 100 100 100 100
100 100 100 100 100 100 100 100 100 100 100 100 100 100 100 100 100 100 100 100 100 100
100 100 100 100 100 100 100 100 100 100 100 100 100 100 100 100 100 100 100 100 100 100
100 100 100 100 100 100 100 100 100 100 100 100 100 100 100 100 100 100 100 100 100 100
100 100 100 100 100 100 100 100 100 100 100 100 100 100 100 100 100 100 100 100 100 100
100 100 100 100 100 100 100 100 100 100 100 100 100 100 100 100 100 100 100 100 100 100
100 100 100 100 100 100 100 100 100 100 100 100 100 100 100 100 100 100 100 100 100 100
100 61 92 100 100 100 100 100 100 100 100 100 100 100 100 100 100 100 100 100 100 100
100 100 100 71 97 100 100 100 100 100 100 100 100 100 100 100 100 100 100 100 100 100
87 100 100 100 100 100 100 100 100 100 100 100 100 100 100 100 100 100 100 100 100 100
3 2 3 18 35 100 100 100 100 100 100 100 100 100 100 100 100 100 100 100 100 100
85 76 69 97 69 36 14 4 1 14 33 74 100 100 39 83 98 100 100 80 100 100
1 4 0 0 0 0 0 0 0 0 0 0 0 0 0 4 94 24 81 100 100 97
0 3 0 0 0 0 0 2 5 1 0 0 0 0 1 5 32 11 98 72 100 100

GFSNIL_prec_cloud_096.txt.gz
Cloud_Cover
100 100 100 100 100 100 100 100 100 100 100 100 100 100 100 100 100 100 100 100 100 100
100 100 100 100 100 100 100 100 100 100 100 100 100 100 100 100 100 100 100 100 100 100
100 100 100 99 100 100 100 100 100 100 100 100 100 100 100 100 100 100 100 100 100 100
100 100 100 100 100 100 100 100 100 100 100 100 100 100 100 100 100 100 100 100 100 100
100 100 100 100 100 100 100 100 100 100 100 100 100 100 100 100 100 100 100 100 100 100
100 100 100 100 100 100 100 100 100 100 100 100 100 100 100 100 100 100 100 100 100 100
100 100 98 100 100 100 100 100 100 100 100 100 100 100 100 100 100 100 100 100 100 100
31 100 100 100 100 100 100 91 100 100 100 100 100 100 100 100 100 100 100 100 100 100
100 100 100 99 99 100 98 98 100 100 100 100 100 100 100 100 100 100 100 100 100 100
0 0 0 0 4 4 45 99 90 80 76 100 100 100 100 100 100 100 100 100 100 100
5 21 14 10 9 7 3 2 0 0 2 4 8 44 87 100 100 100 100 100 100 100
36 29 5 5 5 5 1 5 5 5 4 0 0 0 0 2 5 31 82 100 99 99
62 5 12 23 4 2 2 3 5 5 5 4 2 0 0 0 5 5 5 5 5 5
0 4 5 5 4 5 19 5 5 5 5 5 4 4 0 5 5 23 30 5 5 5

GFSNIL_prec_cloud_099.txt.gz
Cloud_Cover
100 100 100 100 100 100 100 100 100 100 100 100 100 100 100 100 100 100 100 100 100 100
100 100 100 100 100 100 100 100 100 100 100 100 100 100 100 100 100 100 100 100 100 100
100 100 100 100 99 97 100 100 100 100 100 100 100 100 100 100 100 100 100 100 100 100
100 100 100 100 100 100 100 100 100 100 100 100 100 100 100 100 100 100 100 100 100 100
100 100 100 100 100 100 100 100 100 100 100 100 100 100 100 100 100 100 100 100 100 100
100 100 100 100 100 100 100 100 100 100 100 100 100 100 100 100 100 100 100 100 100 100
78 100 100 100 100 100 100 100 100 100 100 100 100 100 100 100 100 100 100 100 100 100
72 78 100 100 100 94 24 95 100 100 100 100 100 100 100 100 100 100 100 100 100 100
0 0 25 68 5 5 11 98 78 5 30 100 77 100 100 100 100 100 100 100 100 100
0 0 0 0 0 0 0 1 3 4 3 1 3 18 22 8 40 93 100 100 100 100
0 0 0 0 0 0 4 3 4 2 0 0 0 0 2 4 4 5 20 69 100 100
4 5 2 2 0 0 0 0 0 0 0 0 0 0 0 0 0 5 5 5 5 17
1 0 0 0 5 5 4 4 2 4 1 0 0 0 0 0 5 5 5 5 5 5
4 4 5 5 4 2 1 2 0 0 0 0 0 0 0 5 5 5 5 7 5 5

GFSNIL_prec_cloud_102.txt.gz
Cloud_Cover
100 100 100 100 100 100 100 100 100 100 100 100 100 100 100 100 100 100 100 100 100 100
100 100 100 100 100 100 100 100 100 100 100 100 100 100 100 100 100 100 100 100 100 100
100 100 100 100 100 100 100 100 100 100 100 100 100 100 100 100 100 100 100 100 100 100
100 100 100 100 100 100 100 100 100 100 100 100 100 100 100 100 100 100 100 100 100 100
100 100 100 100 100 100 100 100 100 100 100 100 100 100 100 100 100 100 100 100 100 100
100 98 98 99 91 100 99 100 100 100 100 100 100 100 100 100 100 100 100 100 100 100
100 70 100 100 95 46 97 99 84 100 100 100 100 100 100 100 100 100 100 100 100 100
64 60 5 55 63 100 96 60 97 100 100 95 82 100 100 100 100 100 100 100 100 100
0 0 0 0 0 0 0 71 100 100 92 68 14 93 100 100 99 100 100 100 100 100
0 0 0 0 0 0 0 0 2 12 3 0 0 1 4 6 5 5 14 64 100 100
0 0 0 0 0 0 0 0 0 0 0 0 0 0 0 0 0 0 0 0 0 6
0 0 2 2 0 0 0 0 0 0 0 2 0 0 0 0 0 0 0 0 0 5
0 0 5 5 0 0 0 0 0 4 5 5 4 2 0 0 0 3 0 5 0 5
19 18 24 5 5 2 3 5 20 10 28 35 19 5 5 5 2 3 4 4 2 5

GFSNIL_prec_cloud_105.txt.gz
Cloud_Cover
86 54 37 23 100 100 100 100 100 100 100 100 93 100 100 100 100 100 100 100 100 100
100 100 100 100 100 100 100 100 100 98 100 100 100 100 100 100 100 100 100 100 100 100
100 100 100 100 100 100 98 100 100 100 100 100 100 100 100 100 100 100 100 100 100 100
100 100 100 100 100 100 100 100 100 100 100 100 100 100 100 100 100 100 100 100 100 100
100 100 100 100 100 100 100 100 100 100 100 100 100 100 100 100 100 100 100 100 100 100
100 100 100 100 100 100 100 100 100 100 100 100 100 100 100 100 100 100 100 100 100 100
64 97 100 100 96 98 84 73 69 100 97 100 100 100 100 100 100 100 100 100 100 100
5 5 18 16 7 2 11 63 100 99 57 96 98 100 100 100 100 100 100 100 100 100
0 0 0 0 0 0 0 0 0 0 14 100 100 100 100 100 100 100 100 100 100 100
1 0 0 0 0 0 0 0 0 0 0 0 0 1 4 6 20 45 29 40 3 72
16 5 5 5 5 4 0 0 0 0 0 0 0 0 0 0 0 0 0 0 0 0
4 1 0 0 0 0 0 0 0 0 0 0 0 0 0 0 0 0 0 0 0 0
0 0 0 0 0 0 0 0 0 0 0 0 0 0 0 5 3 2 0 0 0 3
1 4 2 1 0 2 0 0 0 0 0 0 0 0 1 5 5 17 6 5 5 5

GFSNIL_prec_cloud_108.txt.gz
Cloud_Cover
13 75 67 89 38 13 100 100 100 54 100 100 100 100 100 100 100 100 100 100 100 100
100 100 100 100 100 100 100 100 100 100 100 100 99 84 100 100 100 100 100 100 100 100
100 100 100 100 100 100 100 100 100 100 100 100 100 100 100 100 100 100 100 100 100 100
100 100 100 100 100 100 100 100 100 100 100 100 100 100 100 100 100 100 100 100 100 100
100 100 100 99 77 100 100 100 100 100 100 100 100 100 100 100 100 100 100 100 100 100
100 100 100 100 100 48 100 100 100 100 100 100 100 99 100 100 100 100 100 100 100 100
4 4 5 28 62 100 98 91 87 96 98 99 100 100 94 100 99 100 100 100 100 100
0 1 0 0 0 0 2 6 6 4 6 15 48 50 100 100 100 100 100 100 100 100
5 5 5 5 5 0 0 0 0 0 0 0 0 0 2 5 46 100 100 100 100 100
16 33 31 5 5 5 4 5 4 4 3 2 0 0 0 1 1 0 1 7 27 80
5 5 3 0 2 1 2 0 0 0 0 0 0 0 3 5 5 0 0 0 0 0
0 0 0 0 0 0 0 0 1 0 0 0 0 0 0 5 3 0 2 0 0 0
0 0 0 0 0 0 0 0 0 0 0 0 1 4 5 5 9 74 7 5 2 0
1 2 0 0 0 0 0 0 0 0 0 0 0 0 3 12 29 84 100 90 13 7

GFSNIL_prec_cloud_111.txt.gz
Cloud_Cover
100 97 100 100 100 94 96 100 100 100 100 100 86 18 41 44 17 7 60 100 100 100
100 100 100 100 100 100 100 100 100 100 100 100 100 100 100 100 100 100 45 98 100 100
93 81 99 100 99 90 99 97 100 100 100 100 100 100 100 100 100 100 99 89 100 100
100 100 100 100 95 57 100 100 100 98 100 100 92 100 100 100 100 100 100 100 74 100
5 39 46 30 35 66 97 94 94 100 98 91 100 100 87 100 97 79 96 100 100 100
0 0 2 2 0 3 7 48 68 93 100 100 96 100 100 100 100 100 90 68 100 94
3 4 5 5 5 5 4 3 4 5 5 5 5 14 71 66 24 36 100 33 100 100
2 1 5 1 0 0 0 0 0 1 0 0 0 1 3 5 4 2 64 97 80 100
0 0 0 0 0 0 0 0 0 0 0 0 0 0 0 3 4 0 0 0 3 5
5 4 0 0 0 0 0 0 0 0 0 0 0 0 0 5 5 0 0 0 0 0
5 5 0 1 4 4 5 5 5 1 2 0 0 0 0 5 2 0 0 0 0 0
5 8 6 5 5 76 5 11 0 4 0 0 0 0 0 5 5 5 5 4 4 5
5 6 32 100 100 100 12 6 2 4 0 1 0 0 5 44 76 90 48 68 75 5
7 45 92 100 30 15 19 44 5 5 2 0 0 0 7 68 90 73 94 48 5 5

GFSNIL_prec_cloud_114.txt.gz
Cloud_Cover
100 100 100 100 100 100 100 100 100 100 95 98 96 98 100 100 54 7 6 38 76 93
5 15 21 38 68 99 95 99 98 100 100 100 100 100 100 86 86 100 97 100 100 100
5 6 5 12 54 52 99 100 97 100 100 100 100 74 95 100 100 100 100 100 100 98
0 0 0 0 1 2 1 5 22 76 70 79 100 100 92 94 98 100 100 100 100 100
0 0 0 0 0 0 0 0 0 0 0 2 6 34 28 68 5 68 99 98 100 93
0 0 0 0 0 0 0 0 0 0 0 0 0 0 0 0 2 3 7 60 100 100
0 0 0 0 0 0 0 0 0 0 0 0 0 0 0 0 0 0 0 0 0 12
0 0 1 0 0 2 4 2 4 28 6 0 0 0 0 4 5 5 0 0 0 0
3 83 9 5 5 75 29 6 7 7 5 5 5 5 6 5 5 0 0 0 0 0
5 21 96 82 54 77 92 22 12 78 16 43 69 75 44 5 5 0 0 0 2 1
5 5 50 76 36 69 63 100 100 21 5 5 5 5 3 5 1 0 0 0 5 5
92 96 100 93 59 46 20 64 5 56 5 58 5 5 5 5 5 5 5 5 5 5
59 62 23 8 31 5 53 30 95 97 96 6 5 5 5 6 5 5 5 5 5 5
41 98 71 99 57 5 31 99 100 19 5 9 5 5 5 31 48 5 31 6 5 5

GFSNIL_prec_cloud_117.txt.gz
Cloud_Cover
0 0 0 0 2 16 42 72 95 73 88 100 100 100 100 100 100 100 100 95 82 32
0 0 0 0 0 0 0 4 5 34 36 38 17 35 32 90 68 55 95 100 90 43
0 0 0 0 0 0 0 2 1 3 2 4 28 61 77 93 100 94 38 18 32 62
0 0 0 0 0 0 0 0 0 0 0 0 0 0 0 0 0 0 3 9 48 97
0 0 0 0 2 3 0 0 4 1 0 3 5 49 5 0 0 0 0 0 3 0
4 0 2 30 95 31 54 41 64 100 94 21 10 15 45 28 16 1 1 1 0 0
44 36 5 7 100 98 45 96 95 12 6 5 5 3 1 0 1 4 2 0 0 1
80 11 5 5 5 5 43 42 37 58 9 32 5 11 12 40 24 31 10 5 4 0
5 5 37 99 63 66 57 5 5 5 5 78 70 13 60 27 5 0 0 0 2 0
5 5 13 11 11 5 5 6 5 7 24 6 5 14 71 88 100 10 0 0 5 3
94 100 90 61 34 26 14 14 28 22 6 17 96 18 61 89 5 5 5 3 5 5
28 75 32 35 66 57 37 5 5 5 14 5 5 58 10 5 5 5 5 1 5 5
100 100 72 98 95 23 62 99 96 86 45 55 78 52 8 5 5 5 5 5 5 5
96 100 100 94 54 5 5 5 15 20 91 100 100 16 5 5 56 50 43 62 13 5

GFSNIL_prec_cloud_120.txt.gz
Cloud_Cover
0 0 0 0 0 0 0 0 0 0 0 0 0 0 0 0 3 26 95 100 100 97
0 3 4 0 0 0 0 0 0 0 1 5 8 2 0 0 0 0 0 0 0 5
0 0 0 0 0 4 19 54 30 27 5 5 5 5 5 5 5 5 4 2 0 0
0 0 3 4 2 5 37 100 89 54 94 70 49 5 5 10 5 5 5 0 3 5
5 5 3 5 5 5 5 6 36 39 5 7 31 18 5 5 5 5 5 5 5 5
5 5 3 5 5 5 5 7 76 42 5 5 5 11 37 6 19 3 0 4 5 5
5 5 6 21 40 25 32 8 13 7 6 5 5 5 5 0 1 0 4 0 0 0
5 5 10 6 11 21 19 25 6 5 5 5 5 9 69 15 5 2 4 0 0 5
5 68 59 5 6 29 15 93 100 100 61 12 5 5 19 6 72 5 0 4 4 4
100 100 100 100 100 100 80 54 53 96 78 48 100 61 53 6 5 5 41 100 5 4
100 100 100 100 100 100 100 100 100 100 100 100 100 98 21 5 5 5 61 67 5 5
100 100 100 100 100 100 100 100 100 97 100 99 100 14 24 5 5 5 31 5 5 5
5 7 94 53 85 100 97 98 100 100 93 97 100 93 5 68 5 5 5 5 5 5
83 98 100 100 100 100 100 100 100 100 66 28 62 5 5 5 29 30 71 80 5 5